Theta_e
330 322 317 314 309 309 309 300 295 294 288 287 282 286 290 290 291 292 292 292 293 294 294 293 294 297 298 295 295 294 294 292 292 287 293 295 303 309 315 325 320 325 331 335 339 341 345 346 351 353 354 353 353 353 352 352 352 351 351 350 349 348 348 347 346 347 347 347 346 346 347 347 347 346 346 347 348 348 348 348 347 348 348 348 348 347 347 345 344 343 341 340 338 337 337 337 337
323 315 314 313 311 308 302 294 289 282 282 282 287 284 285 287 291 289 293 292 294 298 293 293 294 294 293 293 293 295 296 296 295 298 301 302 306 309 313 322 324 328 331 335 339 341 343 345 349 352 354 353 353 353 353 352 351 351 350 349 349 349 347 347 346 347 347 347 347 347 347 348 348 346 346 347 348 347 347 348 347 347 348 348 347 347 346 345 344 343 342 341 339 338 336 336 335
319 316 313 309 308 303 298 296 294 279 280 283 281 285 287 290 290 290 290 292 293 294 291 292 294 296 297 296 297 296 295 297 295 295 303 307 307 307 315 322 325 329 332 336 339 341 343 343 345 351 353 353 353 353 352 352 351 351 350 349 349 348 347 347 346 347 348 347 346 348 348 348 348 348 348 347 348 347 347 347 347 347 347 347 347 346 345 345 343 342 341 340 338 336 335 334 334
313 314 311 306 305 297 296 287 284 279 282 279 282 285 287 290 289 288 289 291 291 290 294 297 299 297 298 294 298 297 295 298 297 301 302 310 305 307 318 322 326 328 331 335 338 341 342 343 344 351 353 353 352 353 352 352 351 350 349 349 348 347 346 347 346 348 347 346 347 348 348 348 347 347 347 347 346 347 347 347 346 346 345 347 346 345 344 343 341 341 340 339 337 335 333 332 331
311 314 306 302 299 297 289 288 284 281 283 282 287 287 287 288 290 287 290 290 290 291 294 297 295 297 298 299 297 298 300 299 301 302 306 307 308 309 320 324 327 330 331 334 338 340 341 342 344 348 353 353 352 352 353 352 351 350 349 348 348 347 346 347 347 347 347 347 347 348 348 348 348 347 347 347 347 346 347 346 345 345 345 345 344 344 342 341 340 339 338 338 336 334 332 331 330
308 308 308 305 302 297 292 289 288 289 285 285 288 291 289 287 289 291 290 291 292 292 295 293 297 297 297 298 296 300 296 303 302 306 307 312 313 312 321 326 329 329 330 333 336 339 340 341 343 347 353 353 353 352 352 352 351 350 349 348 347 347 347 347 348 347 348 347 347 348 347 348 348 347 347 347 347 346 346 345 344 344 343 344 343 341 340 340 338 338 337 336 335 333 331 330 329
310 303 301 300 298 295 290 283 285 284 292 288 292 288 288 289 289 291 292 294 297 296 293 298 294 296 295 294 297 299 298 305 308 308 308 309 311 319 325 330 328 328 329 332 335 337 338 341 345 348 351 352 352 352 352 351 351 350 349 348 347 347 347 347 348 347 348 348 348 348 347 348 348 347 347 346 346 346 345 344 343 342 342 341 341 340 339 338 337 337 336 335 334 331 330 328 328
308 305 298 293 291 288 286 282 285 284 291 288 290 290 290 289 287 291 291 293 294 296 295 293 293 296 296 294 296 298 297 303 307 308 312 311 313 319 327 330 330 329 332 332 334 336 337 340 344 347 350 352 351 352 352 352 350 349 349 348 347 347 346 347 348 347 348 348 348 348 348 348 346 346 346 345 345 344 344 343 342 341 340 340 340 339 338 338 337 335 335 334 332 330 328 327 326
304 301 296 294 288 285 282 287 288 286 288 289 291 290 299 296 289 293 292 292 293 293 292 296 294 294 292 294 294 296 298 302 305 309 312 315 316 318 326 325 327 329 333 335 334 333 334 338 342 346 348 350 351 352 352 351 350 349 349 348 347 347 346 347 348 348 347 348 348 348 348 348 346 346 346 345 345 344 343 342 341 340 339 339 339 338 338 337 337 335 336 334 332 329 327 326 325
302 298 292 289 288 289 281 284 287 290 289 289 288 292 290 290 291 293 292 293 295 292 294 293 294 297 295 296 295 301 306 303 306 314 312 314 315 316 322 323 322 330 333 335 336 335 335 334 339 343 346 349 350 352 352 351 350 349 349 348 348 348 347 348 348 348 347 348 349 348 348 347 346 346 346 345 345 344 343 341 341 339 338 337 336 336 336 336 335 336 335 333 331 329 327 325 324
298 294 293 287 279 280 285 284 282 286 287 289 289 291 292 290 293 292 291 292 292 293 292 293 297 295 295 296 295 299 300 297 309 311 314 313 314 315 319 319 323 330 333 334 335 335 335 335 334 340 342 345 347 349 350 349 350 349 349 349 348 348 348 348 348 349 348 349 349 348 348 346 346 346 345 344 344 344 343 341 340 339 338 336 336 335 334 333 333 333 334 331 330 328 326 324 322
297 291 289 281 282 283 282 283 284 287 289 287 295 293 291 292 291 293 292 294 291 289 292 293 296 294 294 291 295 298 297 298 306 310 309 309 314 314 315 313 316 325 329 332 332 334 333 332 334 335 338 340 342 345 347 347 348 348 348 349 348 348 348 348 348 348 348 348 348 349 347 347 346 346 345 344 345 344 342 341 340 339 338 336 335 334 333 332 331 335 332 330 328 327 325 323 322
293 288 286 283 286 285 283 283 283 288 286 289 293 295 291 292 294 292 291 290 290 291 294 294 296 296 293 294 295 293 300 300 299 304 305 307 313 311 312 312 313 320 324 328 332 333 333 334 336 338 337 335 336 338 340 343 344 346 347 348 347 347 347 347 347 347 347 347 348 347 347 345 345 346 345 345 344 343 341 342 340 338 337 335 333 333 332 331 331 332 330 328 327 325 324 322 320
294 289 290 288 281 283 283 285 283 289 286 290 287 289 291 294 293 293 289 293 290 293 294 295 296 295 296 292 290 288 294 298 300 304 306 308 308 308 311 312 313 315 318 327 332 333 333 335 337 340 340 340 341 337 334 337 340 343 345 345 344 344 345 346 345 344 345 345 344 342 341 340 341 343 343 343 342 341 342 341 341 338 336 334 332 332 331 331 331 331 329 328 326 325 322 322 320
300 290 284 283 281 282 282 287 287 285 290 289 294 291 291 294 293 289 293 292 293 292 294 296 298 296 291 294 291 291 297 298 301 305 307 309 308 307 309 311 312 313 316 323 329 331 333 334 337 339 339 342 342 341 341 339 335 338 340 341 341 342 342 341 341 341 340 340 339 338 337 336 335 336 336 337 339 336 335 333 336 338 334 333 332 331 331 331 332 330 329 327 326 324 322 321 319
295 290 285 287 282 283 283 286 284 285 290 288 292 287 290 293 292 295 294 295 295 296 295 298 298 297 294 295 296 296 294 296 302 306 309 309 306 310 306 310 312 311 312 322 327 329 332 334 336 338 340 341 341 341 342 342 334 332 337 339 338 339 339 338 338 338 334 333 333 332 331 333 331 333 329 333 332 334 331 327 332 336 338 333 332 331 330 330 329 330 328 327 325 323 322 319 315
295 290 288 280 283 283 283 286 286 288 287 287 288 290 293 291 291 291 293 293 295 294 292 294 298 297 294 295 296 295 299 305 307 307 308 309 303 307 307 309 309 311 315 319 325 329 330 332 334 337 339 340 341 341 342 343 341 331 332 332 333 334 335 334 335 332 328 327 327 327 326 330 329 331 330 332 326 330 323 324 329 334 336 335 335 332 330 329 329 329 328 326 325 324 319 316 314
292 285 282 284 279 284 285 288 288 291 291 292 291 290 292 290 290 294 295 294 289 289 292 292 292 293 295 294 297 299 301 304 303 307 305 304 303 306 306 306 308 311 309 311 319 326 330 331 333 335 337 339 341 341 342 342 342 335 339 339 336 334 331 330 332 331 327 327 324 328 331 329 328 329 330 328 330 328 324 322 324 329 334 333 332 334 332 330 329 329 327 326 325 321 314 297 295
287 285 283 283 281 286 290 288 289 291 291 290 291 288 291 292 292 293 293 292 289 293 294 293 294 293 293 293 293 292 300 302 303 303 303 303 303 304 305 305 307 308 312 311 311 320 328 331 333 334 335 338 339 340 341 342 342 339 339 341 338 333 332 330 332 330 327 326 326 328 329 332 330 330 330 328 328 322 325 320 323 326 331 330 330 331 333 334 330 328 327 325 323 316 297 292 290
291 289 287 283 286 287 289 289 292 290 292 293 292 290 290 293 293 293 293 292 289 292 295 292 293 294 293 294 292 293 294 297 300 301 301 301 301 302 303 304 305 306 308 311 314 311 321 329 332 333 334 336 338 339 339 341 341 340 340 338 339 339 338 336 334 333 332 330 330 329 328 329 330 329 324 322 323 325 323 319 321 323 325 325 324 326 328 329 331 329 327 323 311 299 293 292 290
294 290 287 288 287 292 293 290 292 291 291 292 290 289 292 293 290 293 291 293 294 293 293 294 294 295 295 293 292 293 293 294 295 296 296 297 297 299 300 301 303 304 306 308 309 312 316 325 330 332 333 335 336 338 337 339 339 339 341 340 337 337 337 336 334 335 333 332 331 329 327 327 327 328 326 324 324 323 321 320 320 321 320 319 320 319 317 318 315 310 305 304 296 296 294 291 289
293 292 289 290 289 291 292 290 291 291 289 291 289 292 295 292 292 290 292 292 294 295 295 293 294 293 292 292 292 295 295 295 296 296 295 296 296 296 297 298 298 298 301 303 306 310 312 319 328 331 333 334 335 337 337 338 337 338 338 340 338 335 334 337 339 336 333 331 330 328 326 325 325 324 323 323 322 322 320 319 320 319 318 317 316 317 315 314 311 307 304 301 295 293 291 290 291
293 289 291 290 289 294 294 292 290 292 292 292 292 294 291 291 292 291 292 294 296 295 295 294 293 292 293 295 295 295 295 295 295 295 296 295 296 296 297 298 298 298 298 300 302 306 310 312 318 328 331 332 334 336 337 337 337 338 337 337 339 338 334 332 332 333 335 332 328 326 325 326 325 323 321 320 320 321 321 319 318 317 317 317 314 316 314 310 310 308 304 298 294 294 293 291 290
294 291 290 293 291 294 293 296 293 291 292 292 292 290 292 290 292 290 291 295 295 293 291 293 296 297 296 295 295 294 294 294 294 295 296 295 295 296 297 297 299 299 299 302 302 301 305 310 314 322 328 331 332 334 335 336 335 336 335 335 335 335 335 334 333 329 329 332 330 326 327 325 323 320 322 321 319 319 318 317 316 316 316 314 312 314 313 310 309 307 304 297 297 294 295 292 291
294 292 291 293 291 292 291 289 288 289 289 291 289 291 293 291 291 291 295 293 292 292 294 295 295 295 295 295 294 294 294 294 294 295 295 296 296 297 297 297 298 299 300 302 304 304 304 306 310 316 323 328 331 333 334 334 335 335 334 332 333 328 333 333 331 331 329 327 327 325 322 322 322 322 321 321 319 319 318 316 315 315 314 315 315 314 314 311 310 308 305 301 296 295 294 293 292
292 292 290 289 290 289 290 290 290 290 291 290 291 292 291 291 291 291 293 291 292 294 295 295 294 294 294 294 294 293 293 293 294 294 295 295 296 296 296 296 297 298 299 301 302 305 308 307 308 314 316 324 328 331 332 332 332 333 331 332 332 330 330 325 325 327 327 326 326 325 323 322 322 321 318 316 318 318 318 317 317 316 315 314 314 315 312 312 310 306 304 302 298 296 296 293 293
290 290 290 291 292 289 290 291 292 291 291 289 292 292 291 290 291 289 290 291 293 295 294 293 293 293 293 293 293 293 293 293 293 294 294 295 295 294 295 295 296 297 298 299 300 303 308 311 310 310 313 316 322 328 329 330 330 331 331 331 330 328 327 326 325 324 325 323 322 321 322 320 318 320 319 317 317 317 316 316 316 315 315 314 314 315 311 312 309 309 307 304 299 296 295 291 292
290 291 290 289 288 288 289 288 290 290 292 288 291 289 290 288 290 289 291 290 292 293 293 292 292 291 292 292 292 292 293 293 293 293 292 292 293 293 294 294 295 296 297 298 299 301 306 310 312 311 311 313 319 322 323 327 328 328 327 330 330 329 327 328 324 325 324 324 322 319 319 321 318 318 317 317 316 316 316 316 315 315 315 312 311 311 309 307 308 304 302 299 296 296 296 293 291
291 290 291 288 289 291 290 291 290 290 291 288 289 290 289 289 288 291 291 290 293 293 292 291 291 291 290 291 292 292 292 292 292 292 292 293 293 294 293 294 294 294 297 297 298 299 301 307 311 311 312 312 314 317 321 322 324 325 327 328 329 327 329 328 328 328 324 323 321 321 318 317 316 317 316 316 315 316 316 314 313 314 312 309 307 307 307 305 305 302 299 296 295 295 296 295 293
291 287 287 290 288 289 291 289 288 289 291 286 291 285 285 286 290 290 291 290 292 292 291 291 290 290 290 290 291 291 292 292 291 292 292 292 293 293 293 294 295 294 295 297 298 298 300 302 308 310 310 311 311 313 313 318 320 320 320 322 321 323 323 322 320 320 320 319 319 318 317 316 316 315 314 313 314 314 312 313 311 312 310 307 306 305 305 304 303 300 298 297 299 297 297 295 294
291 288 287 285 284 284 288 289 288 290 290 287 292 286 285 288 290 291 289 288 290 290 291 290 289 289 289 289 290 290 291 291 291 292 292 292 292 293 292 293 294 294 295 295 296 297 298 300 303 307 309 310 310 312 314 314 315 316 317 317 317 318 318 319 318 319 319 319 318 318 316 315 315 314 313 313 311 311 310 310 309 310 308 307 307 305 306 302 302 303 300 300 296 294 293 292 293
284 287 283 279 284 284 286 291 288 290 291 287 291 284 288 291 291 289 290 288 291 290 289 289 288 288 289 289 289 290 290 291 291 292 292 292 292 292 292 292 293 293 293 294 295 297 297 298 300 302 306 309 310 311 313 314 314 314 314 312 314 314 314 314 315 315 316 316 317 316 315 315 315 314 313 314 313 312 312 311 310 308 307 307 306 304 305 304 302 302 300 302 301 299 295 297 291
281 285 283 283 282 282 287 291 286 290 289 289 290 287 283 290 287 289 290 288 290 289 288 287 288 288 289 289 289 289 289 290 290 291 291 291 292 292 292 292 292 293 293 293 294 295 296 297 298 299 301 305 309 310 311 311 311 311 310 310 310 310 311 311 311 312 312 313 313 313 313 313 313 313 313 312 313 312 312 311 309 308 307 307 306 304 305 304 303 303 300 299 301 300 296 295 294
283 281 283 282 283 283 284 288 289 287 290 288 288 286 284 290 290 289 291 289 290 288 288 288 288 288 288 288 288 288 288 288 288 289 290 290 291 291 292 293 292 292 293 293 293 294 294 295 296 297 298 301 304 306 307 307 306 305 305 304 304 304 305 307 308 308 307 308 309 310 311 311 310 310 310 311 311 310 310 309 307 307 306 306 305 304 304 302 303 303 303 297 296 298 297 296 296
282 282 282 284 282 282 285 284 288 289 288 289 287 285 287 289 291 290 290 290 289 288 288 287 287 287 288 288 288 287 287 287 288 289 289 290 290 290 291 291 291 292 292 292 292 293 294 294 295 295 296 297 299 302 303 303 302 302 302 301 301 301 301 301 302 302 303 303 304 305 307 308 307 308 308 309 309 309 308 307 306 305 305 305 305 303 302 301 300 300 300 301 294 294 295 294 293
288 286 285 282 283 283 282 287 287 289 288 287 286 288 290 290 291 289 290 289 288 287 287 287 287 287 287 287 287 287 287 287 288 289 289 289 289 290 290 290 291 291 291 292 292 292 292 293 293 294 294 295 297 298 300 300 299 298 298 298 297 297 298 297 297 297 298 298 299 300 302 302 303 304 305 306 306 306 306 305 305 304 304 305 304 303 302 301 300 299 299 298 299 295 293 291 289
287 285 284 284 283 284 285 285 289 289 288 286 289 288 286 288 288 288 289 289 288 287 287 287 286 287 287 286 286 286 286 286 288 288 288 288 289 289 289 290 290 290 291 291 291 291 291 291 292 291 293 294 295 295 296 296 297 296 295 294 293 294 295 295 295 294 294 294 294 295 296 296 297 298 300 301 301 301 301 301 301 302 302 302 300 299 298 298 297 298 296 296 297 296 295 289 290
286 285 283 284 283 285 287 287 287 289 288 284 283 285 286 287 286 287 288 288 286 286 286 286 286 286 286 286 286 286 287 287 287 287 287 287 288 288 289 289 289 288 289 290 290 290 290 291 291 291 292 293 293 293 294 294 294 294 294 293 292 292 292 292 291 292 292 292 292 292 292 293 293 293 294 296 296 297 297 298 297 297 297 298 298 296 295 294 293 292 293 294 292 295 294 290 292
285 284 283 282 284 284 286 287 286 286 287 285 284 285 288 287 286 287 286 286 286 287 287 286 286 285 285 285 285 285 285 285 286 286 286 286 287 287 287 288 288 288 288 289 289 290 290 290 290 290 291 291 292 293 293 293 293 293 293 292 292 291 292 292 291 291 292 291 291 291 291 291 291 291 291 292 293 293 294 295 295 295 294 295 295 295 294 294 293 292 291 292 292 289 289 290 291
284 283 282 283 285 284 282 285 286 289 286 285 284 285 287 285 286 286 286 286 285 286 286 285 286 285 285 285 285 285 284 284 284 284 285 285 285 286 286 286 287 287 287 288 288 288 289 289 289 290 290 290 291 292 293 292 293 292 292 292 292 292 290 291 291 290 290 290 289 289 289 290 290 290 290 290 290 291 291 292 292 293 293 293 292 293 293 293 292 292 291 290 290 290 291 290 290
284 284 283 284 284 284 285 286 285 285 286 285 286 284 284 285 286 284 285 286 286 286 285 285 285 285 285 285 285 285 284 284 284 284 284 284 284 284 285 286 286 286 286 286 287 288 288 288 289 289 289 290 290 291 291 291 291 291 291 291 291 290 289 289 288 287 287 287 287 286 287 288 288 288 288 289 289 289 289 290 290 291 291 291 292 292 291 291 291 291 291 291 290 289 289 289 288
281 283 287 287 286 286 285 284 286 283 281 282 284 279 276 278 280 283 284 284 284 284 284 284 284 284 284 284 284 284 284 284 283 283 283 283 283 283 284 284 285 285 285 285 286 287 287 287 288 288 289 289 289 290 290 290 290 289 289 288 286 285 284 284 284 284 284 284 284 285 286 286 286 286 286 287 287 288 288 288 289 289 289 290 290 290 291 291 290 290 290 289 289 289 289 287 286
283 286 286 288 287 285 285 284 284 279 279 284 282 280 275 279 281 282 282 282 283 283 283 284 284 284 283 283 283 283 283 283 283 283 283 282 282 283 283 283 284 284 284 285 285 285 285 286 286 287 287 287 288 288 289 289 287 287 286 285 285 284 283 283 284 284 284 284 285 284 285 285 285 285 285 286 286 286 286 287 287 288 288 288 289 289 289 289 289 289 289 289 288 290 288 287 287
283 284 284 285 285 285 284 283 285 281 280 282 282 281 278 279 281 282 282 282 282 282 283 283 284 283 283 283 283 283 282 282 282 282 282 282 282 282 282 282 283 283 283 283 284 284 284 284 284 285 285 286 286 286 286 287 286 285 284 284 284 283 283 282 283 283 284 284 284 284 284 284 285 285 285 285 285 285 286 285 285 286 286 287 287 287 288 288 289 289 289 288 288 288 287 286 286
284 286 284 283 285 284 282 284 282 281 282 279 279 282 280 277 278 282 282 281 281 281 282 283 283 283 283 283 283 282 282 282 282 281 281 281 281 281 281 282 282 282 283 283 283 283 283 283 283 284 284 284 284 285 285 285 285 284 283 283 283 283 283 283 283 284 283 284 283 283 283 284 284 284 284 284 284 285 285 285 284 284 285 285 285 286 286 286 287 287 287 288 287 287 287 286 286
286 283 283 282 282 281 280 279 282 278 278 274 281 283 277 280 278 281 280 280 282 281 282 283 283 283 283 282 282 283 282 282 282 281 281 281 281 281 281 281 281 282 282 283 282 282 282 282 283 283 282 283 283 283 284 283 283 284 283 282 282 281 282 282 282 282 282 283 282 282 283 283 283 283 284 284 284 284 284 284 284 284 284 284 285 284 284 284 285 285 286 286 286 286 286 286 286
284 284 284 283 280 279 278 278 276 277 274 276 282 283 283 278 279 281 282 282 282 282 282 282 283 283 283 282 282 282 282 281 281 281 281 281 281 281 280 280 280 281 281 281 282 282 281 282 282 282 282 282 283 283 283 283 283 283 282 282 282 281 281 282 282 281 281 282 281 281 281 282 282 282 283 283 283 283 283 283 283 283 283 284 283 283 283 283 284 284 284 285 285 285 285 285 286
285 286 282 283 284 277 276 269 274 272 271 273 278 281 281 277 276 279 282 281 283 284 283 283 283 283 283 283 282 282 281 281 281 280 280 280 280 280 280 280 280 280 280 281 281 281 281 281 282 282 281 281 282 282 282 282 283 282 282 282 281 281 281 281 281 280 280 280 280 280 280 281 281 282 282 282 282 282 283 283 283 282 282 282 282 282 283 283 283 283 283 283 283 284 284 285 284
284 283 284 278 272 273 271 268 273 271 274 278 277 280 279 280 282 282 282 282 282 285 286 285 285 284 283 283 282 281 280 280 280 280 280 280 279 279 279 279 279 279 280 280 280 280 280 281 281 281 281 281 281 282 282 282 282 282 282 282 282 282 281 281 281 280 280 280 280 280 280 280 281 281 281 281 281 281 281 281 281 281 281 282 282 282 282 282 282 282 282 282 282 282 283 282 282
283 284 279 273 271 266 263 266 264 268 273 276 278 279 278 279 281 280 281 281 282 282 284 286 286 285 284 283 282 281 280 280 280 280 279 279 280 279 279 279 279 279 279 279 279 280 280 281 281 281 281 280 281 281 282 282 282 282 282 282 282 282 281 281 281 281 281 281 281 280 280 280 280 280 280 280 280 280 280 280 280 281 280 280 281 281 281 281 281 281 281 281 281 281 282 281 281
284 282 285 282 273 264 268 265 272 275 275 273 274 274 271 275 280 279 280 281 281 281 283 284 284 283 283 281 280 280 279 279 279 279 280 280 280 280 279 279 278 278 279 279 279 279 279 280 281 281 281 280 280 281 281 281 282 281 281 282 282 282 281 281 281 282 282 282 282 282 281 281 281 281 280 280 281 280 279 280 280 280 280 280 280 280 281 280 280 280 280 279 280 280 281 281 280
281 281 283 279 280 279 279 274 269 268 270 270 272 275 276 280 279 280 279 280 281 281 283 284 282 282 281 280 280 280 280 280 279 279 280 280 280 280 280 279 278 278 278 278 279 279 279 279 279 280 280 280 280 280 280 281 281 280 280 281 281 282 282 281 281 281 280 280 281 281 281 280 280 280 280 280 280 279 279 279 279 279 279 279 279 279 279 279 279 279 279 279 279 281 280 279 280
283 284 281 283 285 285 282 279 277 275 272 276 270 277 281 280 280 278 279 280 280 280 281 282 281 281 280 280 280 280 280 280 279 280 279 279 279 279 279 279 279 279 278 279 279 279 279 280 280 280 280 280 280 280 279 279 280 280 279 279 280 280 280 280 280 279 279 279 280 280 279 279 279 280 280 280 279 279 279 279 279 279 279 279 279 279 279 279 279 279 279 279 279 279 279 279 279
286 282 285 286 288 287 284 278 277 273 274 277 272 276 279 278 278 278 278 279 279 279 280 281 281 280 280 281 281 280 280 280 280 279 279 279 279 280 280 280 279 279 279 279 280 280 280 281 280 280 280 280 280 280 280 280 281 281 281 281 281 281 281 280 280 280 280 280 280 280 280 280 280 280 280 280 280 279 279 280 279 279 279 278 278 278 278 278 278 279 278 278 278 278 278 279 279
284 283 285 285 280 281 282 278 274 275 274 275 276 276 276 278 281 278 279 279 280 279 279 280 280 280 281 281 281 280 280 279 279 279 279 279 279 280 280 280 280 279 280 279 280 280 280 280 280 280 281 281 281 282 283 284 284 284 282 281 280 280 280 280 279 279 279 279 279 279 279 279 279 279 280 279 279 279 279 278 278 278 278 278 278 278 278 278 277 278 278 278 278 278 278 278 278
286 286 284 284 282 279 277 282 278 278 276 277 273 274 278 279 279 280 282 282 281 280 279 280 282 282 282 282 281 280 280 279 279 279 280 280 280 280 280 280 280 281 280 280 280 280 280 281 281 282 282 283 284 284 283 283 283 283 281 280 280 279 279 278 278 279 279 279 279 279 278 278 278 279 278 278 277 277 277 277 278 278 278 278 278 277 278 277 277 277 277 277 277 277 277 277 278
283 284 279 282 279 282 281 280 280 279 270 271 273 274 279 279 279 281 282 283 282 281 281 282 283 283 283 283 282 281 280 280 280 280 280 280 280 279 279 279 280 280 281 281 281 282 283 283 282 283 283 282 281 281 281 281 281 280 279 278 278 278 278 278 278 278 278 278 278 278 277 277 277 277 277 276 276 276 277 277 277 277 277 277 277 277 277 277 277 277 277 277 277 277 277 277 277
284 285 282 284 280 279 278 278 280 273 277 274 273 276 282 280 280 280 280 280 283 283 283 283 283 283 283 283 282 281 281 281 280 280 280 280 280 280 279 279 279 280 281 281 282 282 283 283 282 283 282 281 280 281 281 281 280 278 278 278 278 278 278 277 277 277 277 277 276 276 276 276 276 276 276 276 276 276 276 276 276 276 276 276 276 276 276 276 276 276 276 277 277 276 276 276 277
Wind_Speed
7 5 4 2 2 1 1 6 1 2 3 0 1 1 0 0 0 2 2 2 1 1 1 2 2 2 1 1 2 3 2 3 5 3 0 2 2 4 5 6 2 2 8 7 8 8 9 10 12 12 13 13 13 13 13 12 12 11 11 10 11 10 10 10 9 9 8 8 8 7 7 7 7 7 7 7 7 7 7 7 6 7 10 10 11 12 13 13 12 12 12 12 12 12 11 11 11
4 4 3 1 0 1 0 1 3 3 6 3 1 1 2 2 0 2 0 3 1 0 1 1 0 1 3 3 1 0 1 6 5 1 3 3 3 4 7 7 4 7 8 7 8 8 8 8 12 12 13 13 13 13 13 13 13 11 11 11 10 10 10 10 10 10 9 9 8 7 8 7 7 7 7 7 7 8 8 7 7 6 9 9 9 10 11 12 11 11 11 11 12 11 11 11 11
3 5 3 3 3 4 2 3 1 1 4 1 3 5 1 0 1 2 6 3 2 2 4 1 1 0 1 1 1 2 1 0 2 2 3 3 1 2 4 7 5 5 8 7 8 8 7 7 11 13 14 13 14 14 13 12 13 12 12 12 10 10 10 10 10 10 10 9 9 8 8 7 7 8 8 8 9 8 8 8 7 7 9 9 7 9 10 10 10 9 9 10 11 11 11 11 10
1 3 1 2 2 3 1 4 5 5 3 3 2 2 1 1 3 5 4 7 6 3 2 1 0 1 1 2 1 1 3 2 3 2 1 0 2 2 4 6 5 4 4 6 7 8 7 8 10 12 14 13 15 14 14 13 13 13 12 11 11 11 10 10 10 10 10 9 8 8 8 8 7 7 6 7 8 9 8 8 8 7 7 9 8 8 9 8 7 8 8 9 10 11 11 11 10
2 1 2 3 2 1 2 1 4 2 1 5 2 4 3 4 3 3 3 2 6 2 1 1 1 0 1 0 1 0 0 2 2 3 2 3 2 2 5 4 5 6 6 5 6 7 6 11 11 11 13 15 15 15 13 13 13 13 11 11 11 11 11 11 11 10 10 9 8 8 8 7 7 7 8 9 9 9 9 8 8 8 7 8 7 9 8 8 7 7 7 8 9 10 10 10 10
2 1 3 1 0 2 5 2 2 0 3 5 0 1 1 4 3 0 7 7 2 1 1 1 0 1 1 0 3 1 3 2 1 1 1 1 6 0 4 4 5 6 5 5 6 6 6 11 11 11 13 15 15 14 13 13 14 14 12 12 12 11 11 11 11 10 10 9 9 8 7 7 7 8 9 10 10 10 10 9 8 8 7 8 6 5 7 7 6 6 6 7 8 9 9 9 9
1 3 4 4 2 4 3 3 1 2 1 5 1 3 3 4 6 1 4 4 1 1 0 0 0 0 1 2 2 4 2 1 1 0 1 4 4 1 3 5 5 6 5 5 5 5 6 11 12 12 12 14 15 13 13 13 14 14 13 13 13 12 12 12 11 11 10 10 9 8 7 7 8 9 10 11 11 10 10 8 7 7 7 6 7 7 4 4 4 4 5 7 9 9 8 8 9
1 0 2 1 1 4 3 1 1 3 1 4 1 3 5 3 1 1 1 1 3 1 1 2 1 1 2 3 0 2 2 1 2 4 5 4 1 1 3 5 6 5 6 4 4 4 7 11 12 13 12 13 13 12 13 14 14 14 13 13 13 13 13 13 12 11 10 10 9 8 8 8 9 9 9 10 10 9 9 8 7 5 4 5 6 5 6 5 3 1 5 9 9 9 8 8 8
5 5 1 3 1 3 3 1 1 3 6 2 6 6 7 4 2 0 1 1 2 1 2 1 1 2 2 4 2 3 3 1 4 4 2 1 4 2 2 4 6 5 6 5 4 4 4 9 12 13 12 12 12 12 13 16 15 14 13 13 13 12 13 12 12 10 10 9 9 8 8 9 9 10 10 10 10 10 8 7 5 5 4 4 4 3 6 7 6 5 6 9 9 9 8 8 8
2 2 2 2 2 1 2 1 2 2 2 2 3 6 2 1 0 0 0 3 1 1 1 1 0 1 1 4 5 2 1 2 5 0 2 2 2 2 2 2 3 6 5 5 4 4 4 7 11 11 12 12 12 12 13 14 14 13 13 13 13 12 12 12 11 10 10 9 8 8 9 9 10 11 9 10 9 9 8 7 7 5 5 3 3 4 5 5 5 8 9 8 9 9 8 8 7
1 5 2 2 5 1 0 1 3 5 3 4 8 8 8 2 1 0 1 3 0 1 4 2 1 1 1 2 4 3 4 4 1 1 0 0 1 3 2 0 2 4 6 5 5 4 4 4 9 10 10 11 11 11 12 12 13 12 12 12 11 11 11 10 10 9 9 8 7 8 8 9 10 10 9 9 8 7 7 6 6 6 4 3 3 4 4 3 5 3 9 9 9 8 8 7 7
1 2 4 2 1 3 1 1 4 8 8 3 1 2 1 3 1 1 1 2 2 3 2 3 1 3 0 2 3 1 6 5 1 0 1 2 1 1 3 1 1 3 2 3 3 4 3 4 5 7 9 9 9 9 10 11 12 12 12 11 11 11 10 10 9 8 8 7 7 6 7 10 10 10 10 8 7 6 6 5 5 5 4 2 2 3 3 3 3 9 8 8 8 7 7 6 6
4 1 5 4 1 1 1 0 2 3 4 2 1 1 0 1 1 1 2 2 0 3 3 6 1 1 2 1 5 6 4 5 4 3 4 2 1 1 1 1 1 2 3 3 3 4 3 4 5 5 6 8 8 8 9 10 11 11 11 12 11 10 10 9 9 8 7 6 6 5 6 6 6 7 8 6 6 5 5 4 4 3 3 1 1 2 3 2 2 7 8 7 7 7 7 5 5
3 4 2 0 1 1 2 1 0 1 1 1 3 4 1 0 1 1 3 1 3 0 2 1 1 2 1 2 6 2 3 3 5 3 2 1 2 2 2 1 1 1 2 4 4 3 3 3 4 5 6 6 5 6 7 9 9 10 10 10 11 10 9 9 8 7 7 6 4 3 4 6 7 5 7 6 5 4 4 4 3 3 2 1 1 1 2 3 4 7 6 7 6 6 5 5 5
0 2 6 4 1 0 2 1 1 2 1 0 1 3 6 3 0 1 2 1 3 3 1 1 1 1 3 1 7 3 3 5 5 5 1 2 3 3 2 2 1 1 2 4 4 4 5 3 4 5 5 5 5 5 4 7 10 9 9 9 9 9 9 8 7 6 6 5 4 3 5 7 6 5 6 7 6 5 5 5 3 3 1 1 1 1 2 2 6 6 6 6 5 4 4 4 4
5 5 4 0 0 0 1 1 1 2 2 1 2 2 1 3 1 0 2 2 2 1 0 1 0 2 1 1 6 4 5 7 5 4 1 2 2 1 2 1 1 1 2 3 3 3 3 4 4 5 5 6 5 4 5 4 7 9 9 10 9 9 8 8 7 6 6 4 4 6 7 6 6 5 5 6 7 6 6 4 4 2 1 2 1 1 1 1 2 6 4 4 4 3 3 5 5
1 3 1 4 2 1 2 2 3 1 3 3 5 4 4 4 2 2 1 0 2 3 2 1 2 1 3 4 3 4 6 4 5 2 2 1 4 2 2 2 4 3 4 2 2 1 2 4 5 4 5 6 6 5 5 5 6 9 7 9 11 10 9 8 7 7 5 4 4 4 4 2 2 3 4 4 7 5 5 5 3 2 2 2 2 1 1 1 1 4 3 3 3 5 7 6 6
2 2 4 0 2 2 5 4 7 1 0 3 4 1 1 6 5 3 2 1 1 2 2 4 4 5 1 3 2 3 3 3 4 3 3 3 4 5 6 5 5 3 4 2 1 3 2 2 3 4 4 6 6 5 4 4 4 7 6 5 6 8 8 8 6 4 4 3 3 4 3 2 4 3 3 4 4 5 5 5 3 1 2 3 3 2 2 2 2 3 2 3 3 7 7 4 4
3 2 2 4 5 4 5 3 5 0 4 4 2 1 2 4 1 3 4 6 4 8 1 1 4 5 6 4 7 7 6 6 6 5 5 6 7 5 5 6 5 5 5 4 3 2 3 3 3 5 4 5 6 5 4 4 4 4 6 7 5 7 6 5 5 4 3 3 3 3 3 4 4 5 5 4 4 6 6 6 3 1 1 2 2 2 2 2 3 2 2 2 8 7 4 3 3
1 3 1 4 7 3 5 3 2 6 1 6 6 1 1 3 0 1 2 7 5 6 9 2 1 5 5 6 7 8 9 8 8 7 7 6 5 5 4 5 5 5 4 5 5 3 3 4 5 4 5 5 6 5 4 4 4 4 4 2 6 6 6 7 5 4 4 4 4 3 3 4 4 4 5 7 5 3 4 5 5 2 1 3 2 2 3 2 2 2 4 8 6 4 3 3 3
1 1 3 2 2 0 1 5 6 5 1 2 1 2 5 3 4 0 1 7 6 6 3 5 5 6 7 6 6 9 10 10 10 10 9 8 7 5 5 5 5 7 6 7 6 5 4 5 4 5 4 5 6 5 4 4 4 5 6 5 2 3 5 4 3 5 6 6 5 4 4 3 1 4 5 4 4 4 3 3 2 3 2 2 3 1 1 1 3 3 3 4 3 3 2 2 3
3 5 2 3 1 1 5 4 4 1 1 1 2 6 6 2 0 1 2 4 12 3 1 1 4 4 3 5 6 7 10 11 11 11 10 8 8 9 8 7 6 4 5 5 6 7 4 4 6 4 5 5 6 5 5 4 4 4 4 7 5 1 2 5 9 9 6 5 5 6 5 3 4 3 3 5 5 5 4 3 4 4 2 2 1 1 1 1 2 3 3 3 2 3 3 2 3
2 3 2 3 3 2 1 0 4 1 1 1 5 3 3 2 7 4 5 9 4 4 0 2 5 4 4 6 5 8 10 10 10 10 9 11 10 9 8 7 7 8 7 6 6 6 5 3 4 5 6 5 6 5 4 4 4 4 4 3 8 7 4 1 2 2 8 9 5 5 5 5 6 5 3 2 3 3 5 5 4 3 2 3 2 3 1 1 2 2 2 2 2 2 2 2 2
2 4 1 3 4 5 3 4 2 2 3 5 2 2 3 5 11 0 4 1 2 3 6 7 7 8 7 10 9 8 7 7 7 6 5 6 7 7 7 8 8 5 4 7 6 6 6 5 4 5 5 5 4 5 4 4 4 4 3 5 2 5 8 8 5 3 1 3 9 5 3 7 5 3 5 6 6 4 3 3 3 2 1 2 3 2 2 1 1 2 2 2 2 1 1 1 2
3 3 1 2 1 4 4 3 5 4 6 6 2 4 7 4 5 5 11 5 3 6 6 8 7 10 11 11 10 8 9 9 9 6 5 5 5 4 6 7 7 7 10 10 8 7 6 5 3 4 3 4 4 4 4 3 4 4 4 1 4 3 3 2 0 3 3 4 2 1 4 4 3 3 5 7 6 6 5 5 4 3 4 6 5 5 6 6 5 4 3 3 1 1 0 0 0
4 5 0 2 3 4 4 5 5 4 4 2 2 9 7 8 3 3 7 3 4 4 10 8 8 12 10 9 8 9 9 9 8 10 9 6 7 12 14 11 9 11 10 8 8 8 7 5 1 1 2 3 3 4 4 3 3 4 2 3 2 1 1 1 2 2 1 2 5 5 0 2 6 6 4 2 6 5 4 3 2 2 3 3 3 3 2 2 3 3 2 2 1 1 1 0 0
3 1 2 2 6 5 4 1 6 1 3 3 3 9 5 1 2 5 3 2 3 10 9 7 10 10 8 7 7 8 10 10 9 6 8 9 11 11 10 10 11 10 9 10 9 8 7 7 7 2 2 2 2 2 2 2 3 3 3 3 2 2 3 4 4 1 1 2 2 6 6 2 2 5 6 6 4 5 5 5 4 2 2 3 3 1 1 0 1 1 2 2 2 1 1 1 1
2 0 2 4 5 4 7 5 12 1 4 3 7 6 1 2 1 3 0 2 1 11 8 8 9 7 6 6 8 6 7 7 7 8 13 13 10 9 10 10 11 10 10 11 8 7 8 9 7 7 3 4 4 4 3 3 3 3 3 3 1 1 2 4 1 0 1 2 2 0 3 5 4 3 3 4 4 4 5 5 3 4 4 2 2 1 2 2 3 2 2 2 1 1 0 1 1
0 1 5 6 7 8 2 5 3 2 4 3 5 2 4 0 6 2 1 2 7 10 8 6 7 6 6 5 6 8 8 7 8 10 9 7 6 7 9 9 9 9 7 8 9 8 9 8 8 8 6 5 4 4 5 4 4 4 4 2 3 5 6 6 7 5 2 0 1 2 2 4 4 4 3 2 2 3 4 4 3 5 3 3 2 3 3 3 3 3 2 2 1 1 0 2 1
1 3 1 8 6 8 5 1 2 1 2 3 2 5 7 6 6 6 2 6 7 10 7 6 5 6 6 6 6 7 8 9 11 9 8 8 8 8 9 9 9 8 7 7 8 11 8 6 6 7 8 8 7 5 4 5 4 5 4 4 4 4 4 4 5 6 7 6 5 7 6 6 5 5 3 1 2 3 3 3 3 3 2 3 3 3 3 3 3 2 2 1 1 1 3 2 2
3 2 1 2 5 5 2 1 1 3 0 1 1 4 7 11 2 1 3 1 4 5 5 5 5 6 6 5 6 7 8 7 8 9 9 9 8 7 8 9 10 9 8 9 11 9 9 9 7 7 9 9 9 9 8 7 7 7 7 6 6 6 6 6 5 5 6 5 6 6 6 5 5 5 5 4 4 3 1 0 1 2 2 2 3 2 3 2 2 2 3 2 1 2 2 3 1
2 3 5 2 4 6 10 6 4 4 1 1 3 0 9 10 1 2 4 2 8 8 5 5 5 5 5 5 6 6 6 6 8 9 10 9 9 8 9 10 9 10 10 9 8 8 11 10 10 10 10 11 11 10 9 9 10 9 9 9 9 10 9 9 9 9 8 8 7 7 7 6 6 5 4 5 4 3 3 5 4 3 3 2 2 2 2 2 2 2 2 2 2 5 2 4 1
4 3 4 5 1 5 9 1 1 3 1 2 3 5 3 6 1 5 8 6 7 9 5 5 5 6 5 6 5 5 7 9 9 10 11 9 8 8 8 8 9 9 8 10 10 9 11 11 11 12 11 10 11 12 13 12 11 12 11 11 11 11 11 10 9 8 9 10 8 7 5 5 5 4 5 6 6 5 4 4 4 5 4 4 3 2 1 1 1 1 1 1 1 3 2 4 4
5 1 5 3 3 2 3 8 1 1 1 1 1 1 5 7 8 2 10 5 8 8 6 5 5 5 5 5 6 6 7 7 10 9 10 9 7 8 7 8 9 8 8 9 8 9 8 8 9 10 9 9 8 10 10 11 11 11 11 10 11 12 11 9 9 10 11 10 11 10 11 11 10 9 8 7 7 6 6 7 6 6 4 4 3 3 4 5 4 4 4 3 3 2 3 4 5
4 1 1 6 2 4 7 1 1 2 2 1 1 3 8 11 10 6 8 6 9 7 5 5 4 4 5 5 5 5 6 8 8 7 8 8 8 7 7 8 9 9 8 9 9 9 9 9 9 11 11 9 8 8 8 9 10 10 10 11 12 11 10 11 10 11 9 10 10 11 12 11 11 11 10 9 8 8 8 7 6 4 2 3 4 4 3 3 3 2 3 3 2 1 3 3 4
8 7 5 3 4 3 3 8 3 1 3 3 3 8 8 8 10 6 9 6 8 6 4 5 4 4 4 5 4 5 5 7 5 6 6 7 7 8 8 8 8 8 9 9 11 12 11 10 8 11 10 8 7 8 7 8 10 10 11 11 13 11 11 11 12 11 10 11 11 12 12 11 11 11 11 10 10 9 8 6 6 5 5 6 5 5 4 3 2 2 1 1 3 2 0 1 2
0 1 3 6 5 5 6 4 7 0 3 6 8 6 5 8 4 5 5 3 6 5 5 4 3 4 4 4 4 4 5 4 3 4 5 6 8 9 8 8 8 9 11 11 12 12 12 9 11 12 8 9 9 9 9 8 8 8 11 12 10 9 9 10 12 10 11 10 12 12 12 11 11 11 11 10 10 9 8 8 8 8 6 6 5 4 3 3 1 1 1 0 1 2 1 1 0
4 5 4 7 2 10 3 3 1 0 2 4 3 3 7 6 3 5 4 3 3 2 4 4 4 3 3 3 3 3 2 2 5 7 8 8 9 10 9 9 10 12 11 11 12 10 9 10 11 8 8 10 10 8 7 9 7 7 10 8 10 9 11 11 10 10 10 10 13 13 11 11 12 12 10 10 10 9 9 8 8 8 7 7 5 4 4 4 3 3 2 2 1 0 1 0 0
4 4 2 4 8 4 5 6 3 1 3 7 4 4 10 5 1 2 3 2 1 1 1 3 4 4 3 3 3 3 4 4 5 6 7 8 10 10 8 8 8 7 8 9 8 10 10 10 9 9 9 9 8 7 9 9 7 7 9 6 9 9 8 7 9 7 9 11 12 12 11 11 11 11 11 11 10 10 9 9 9 7 8 7 8 8 7 7 6 4 4 3 4 1 1 1 0
4 2 2 9 3 1 6 3 1 1 2 3 0 3 7 1 2 3 3 2 2 3 4 4 2 3 3 3 3 3 4 4 6 6 7 9 9 8 8 8 8 7 9 9 10 10 8 9 9 10 10 9 9 9 7 7 8 7 9 10 11 11 8 6 9 10 11 14 13 11 12 10 11 11 11 10 9 10 10 9 8 9 9 8 7 7 8 8 8 7 6 4 2 4 3 3 1
0 4 5 8 4 5 8 6 3 2 1 1 2 5 6 7 6 1 2 3 4 3 4 4 3 3 2 2 5 4 4 3 4 6 8 8 8 8 8 6 6 9 9 9 9 8 7 9 8 9 9 9 9 9 8 5 6 7 6 7 7 8 10 11 12 12 10 9 10 12 10 10 11 11 11 11 10 10 10 9 9 8 9 9 8 8 8 7 6 5 6 6 5 3 5 3 2
2 6 12 8 6 8 7 3 4 6 4 3 1 5 3 2 4 2 2 2 2 1 3 2 2 3 3 4 4 3 4 3 4 5 5 5 5 5 6 7 9 8 9 8 6 7 7 8 9 9 10 10 10 9 9 11 11 10 11 12 12 11 12 12 12 9 9 10 9 5 10 11 10 11 11 11 11 10 11 10 9 10 10 9 8 7 7 9 9 9 8 5 6 5 2 3 3
0 6 7 11 9 5 3 2 2 2 1 1 2 2 6 5 4 1 2 2 1 1 1 0 1 2 3 3 3 3 3 4 4 5 5 6 6 5 7 8 7 8 6 4 5 7 7 8 8 10 10 9 9 9 9 11 13 12 13 12 10 11 12 8 5 5 7 6 7 10 9 10 11 12 11 11 11 10 10 10 10 9 9 9 8 9 10 8 6 6 6 8 6 5 5 5 6
4 2 2 3 4 5 5 3 6 5 1 3 1 2 4 5 3 2 3 3 1 1 2 1 1 1 2 2 2 3 3 3 3 4 4 4 4 5 6 5 6 6 4 4 6 6 8 8 9 10 9 10 9 8 11 10 13 11 12 12 11 11 10 8 6 7 6 7 10 10 9 9 10 11 11 11 11 11 10 10 9 9 9 9 8 8 8 7 8 7 7 5 5 6 5 5 4
3 0 3 3 5 4 3 4 4 1 1 6 3 1 2 4 2 1 2 3 4 7 4 4 2 1 1 1 1 2 3 3 3 4 4 4 4 4 4 5 4 4 4 5 6 6 5 6 9 10 12 10 9 10 12 11 11 11 10 9 11 8 7 7 6 6 8 7 11 9 9 9 9 10 10 11 11 11 10 10 10 10 10 8 7 7 7 7 7 7 9 9 8 7 5 3 3
2 5 7 6 6 6 4 4 4 1 1 5 5 4 4 7 1 0 2 3 7 6 6 4 4 4 2 1 1 2 2 2 3 3 3 3 3 3 3 3 5 4 4 4 5 5 6 6 9 12 11 9 8 10 11 11 10 10 11 10 11 7 6 6 7 9 8 7 10 9 8 9 8 9 9 9 10 9 9 9 9 10 10 9 8 8 8 9 8 7 6 6 6 7 5 5 4
5 2 5 4 7 3 2 6 2 2 4 5 10 9 7 8 4 7 9 8 3 7 3 3 3 4 3 3 3 3 2 2 2 3 3 3 1 2 3 4 4 4 4 5 6 6 5 6 9 13 8 8 8 10 11 11 10 10 11 10 10 9 7 8 10 10 8 9 10 9 8 7 7 8 7 8 9 9 8 8 8 8 7 8 9 9 9 8 8 7 7 7 7 7 6 7 6
3 1 2 1 1 6 2 4 4 1 6 5 2 2 1 9 4 6 5 1 6 13 14 15 12 10 8 5 4 3 2 2 1 2 2 2 3 3 3 4 4 5 5 6 5 4 5 5 9 13 9 8 7 7 9 9 9 9 9 9 9 7 6 8 10 9 7 8 7 8 6 7 8 7 8 9 10 10 9 9 8 8 8 8 8 6 7 7 7 7 8 7 7 6 6 7 6
3 4 3 2 4 5 2 3 2 5 5 0 2 1 2 11 5 1 3 5 4 7 10 17 15 12 9 6 5 4 3 3 2 2 2 2 3 3 4 4 5 5 5 4 5 4 4 6 7 12 9 6 7 6 8 8 8 8 7 8 7 7 8 9 8 9 6 8 7 8 8 8 7 8 8 8 8 8 6 8 8 8 8 8 7 7 7 7 7 7 7 7 7 7 6 6 7
4 4 4 4 0 1 2 5 1 6 5 3 1 0 4 2 6 2 3 2 2 4 3 8 14 15 12 8 5 4 3 3 3 3 2 3 3 2 2 4 4 4 4 4 4 4 4 6 5 10 7 5 5 6 7 8 7 6 6 7 7 7 7 7 7 7 6 6 6 6 6 6 6 6 6 6 5 6 6 5 5 6 5 5 5 5 6 5 6 6 6 7 6 6 6 6 6
7 3 6 7 7 4 4 3 5 6 4 2 4 1 6 1 3 1 5 4 5 4 4 4 4 4 5 5 4 4 4 4 4 4 4 4 3 3 4 4 4 4 4 4 4 4 4 5 6 8 8 5 5 5 5 7 6 5 5 5 6 5 6 6 6 5 5 6 5 6 5 4 5 4 4 3 3 4 4 5 5 6 6 6 6 7 7 6 5 5 4 4 4 4 5 6 5
2 2 5 5 6 6 6 3 3 1 3 3 2 5 4 4 1 1 2 1 3 2 5 9 7 6 6 5 7 6 5 5 4 4 4 3 3 3 3 3 4 4 4 3 4 3 4 4 5 5 6 5 4 4 4 5 4 4 4 5 6 6 5 5 5 4 4 4 4 5 4 3 3 2 3 2 4 3 4 4 4 4 4 5 5 5 6 6 6 7 7 6 7 4 6 6 5
2 3 4 6 1 4 1 2 2 1 2 9 3 6 6 2 1 4 3 3 2 2 5 8 8 7 6 7 7 7 6 6 5 5 5 4 3 3 4 4 4 4 4 4 4 4 5 5 5 5 4 4 4 4 4 4 4 4 4 5 4 4 5 5 5 5 5 4 5 5 5 4 4 5 5 4 5 5 4 5 5 5 4 4 5 5 5 5 6 6 6 7 8 7 7 7 7
7 2 5 1 1 3 3 4 2 1 4 7 3 5 6 1 9 1 2 0 1 2 4 7 7 7 9 10 9 9 8 7 6 4 4 4 4 5 4 4 4 5 4 4 4 3 3 4 4 5 4 5 3 4 4 3 4 5 6 7 7 7 7 7 7 7 7 8 7 7 6 8 8 7 6 7 7 8 8 8 8 8 7 6 6 6 5 5 5 5 5 4 5 6 7 6 6
2 1 1 1 3 1 1 4 2 4 6 6 4 2 5 7 8 2 4 6 8 6 5 7 10 11 13 11 10 8 6 5 5 6 5 5 5 5 5 5 4 4 3 3 3 3 2 2 3 4 5 4 4 3 5 7 8 6 6 7 7 7 7 7 6 5 6 6 5 5 5 4 5 6 6 7 8 8 8 7 6 6 6 7 5 6 5 6 5 6 5 6 5 5 6 7 6
2 0 1 0 2 1 3 4 2 1 8 6 5 3 11 5 5 10 8 12 9 9 9 13 17 18 15 14 12 11 9 7 7 7 7 7 6 6 6 6 5 5 4 4 4 3 3 3 3 2 3 5 7 8 6 7 6 6 6 6 6 4 4 4 3 4 5 6 6 6 6 6 6 5 4 4 4 4 5 5 5 6 7 6 7 6 6 6 6 5 6 7 7 6 7 7 8
1 1 1 0 0 2 3 1 4 4 3 4 6 10 8 6 4 6 7 6 13 17 17 14 14 15 15 13 12 10 9 9 9 9 8 7 7 5 5 4 5 4 4 4 4 4 2 2 4 5 5 5 6 4 5 5 5 6 6 4 3 3 5 6 8 9 8 7 6 5 4 3 3 4 3 4 3 4 4 5 5 6 6 7 7 8 7 7 7 7 7 7 7 7 8 9 8
7 9 8 9 5 3 4 9 3 1 3 5 4 15 9 3 2 2 2 3 8 13 14 15 15 15 14 11 9 9 10 9 9 8 6 6 5 5 4 4 3 3 4 4 3 2 4 4 2 3 4 4 3 5 5 3 4 4 4 4 5 6 6 7 6 6 5 4 4 4 3 3 3 3 4 4 5 4 5 6 5 6 5 6 6 6 6 6 7 8 8 6 7 9 9 9 8
Wind_Direction
341 351 323 348 62 121 53 1 146 323 62 312 3 16 242 169 269 1 248 334 357 250 196 321 132 103 222 212 181 197 202 123 211 115 283 239 218 226 207 217 269 169 164 167 176 180 184 190 182 182 178 181 179 179 175 172 170 166 161 163 166 163 162 161 162 163 158 154 149 146 143 137 134 131 131 129 120 113 103 98 94 96 99 100 91 84 84 80 76 70 68 65 62 57 53 48 45
343 343 359 315 354 54 309 136 95 351 40 60 221 95 248 275 29 215 220 194 207 296 296 253 290 100 48 77 152 135 275 224 168 198 281 239 257 256 208 199 194 171 164 165 172 179 182 190 184 184 178 179 182 182 176 174 171 161 165 171 170 168 171 165 167 168 165 158 158 157 157 157 152 145 146 139 129 121 115 111 108 106 108 104 93 94 83 79 73 68 63 62 60 57 52 45 41
348 3 18 28 29 67 97 32 282 57 83 65 275 206 328 334 216 256 225 213 224 279 281 252 156 142 68 10 2 121 296 294 290 279 240 327 1 265 173 179 179 181 164 163 168 177 182 187 187 181 180 180 181 184 182 178 175 168 170 175 174 173 176 172 175 173 172 166 167 170 168 163 163 159 157 152 134 124 118 115 112 112 109 107 109 94 89 79 67 63 61 57 58 53 48 43 37
80 39 117 56 271 33 55 27 86 122 111 197 310 286 192 166 249 221 251 258 273 299 328 16 86 221 140 358 240 53 289 336 196 166 300 300 196 268 168 158 167 157 154 166 171 175 179 188 187 181 182 181 186 187 183 181 178 172 174 177 178 179 179 177 184 179 177 175 177 177 174 175 166 163 163 138 135 124 116 109 100 94 98 111 109 93 79 69 67 63 62 60 59 52 44 39 34
58 356 83 100 108 349 102 113 136 107 93 206 75 270 260 218 248 277 273 272 288 200 70 217 107 309 185 164 158 114 217 240 306 202 261 269 305 264 155 140 139 150 168 176 172 175 181 184 188 184 182 183 188 189 182 183 182 179 177 177 183 182 183 183 187 184 186 183 185 188 185 177 166 164 151 145 139 129 119 113 106 103 110 106 94 81 82 79 77 75 72 69 64 55 46 39 33
60 47 8 83 25 156 54 55 42 23 215 150 201 301 247 235 223 236 281 297 275 188 193 68 205 342 350 255 184 183 210 33 193 258 206 309 330 246 158 135 138 156 166 175 177 173 181 187 187 187 185 186 188 190 183 183 184 180 177 179 185 185 188 187 190 189 191 189 194 196 191 175 163 159 152 149 142 128 121 111 103 91 81 72 73 97 86 93 96 94 86 85 67 56 46 37 33
318 45 356 28 39 48 164 128 193 190 285 163 250 259 267 296 223 345 326 353 196 86 295 125 91 74 43 313 328 241 189 66 108 267 172 296 332 158 153 135 139 158 166 177 177 180 181 187 189 191 188 188 191 189 183 185 187 181 179 182 187 188 191 192 194 194 196 195 201 201 193 175 161 158 155 153 137 139 127 120 105 94 80 67 65 64 89 102 92 113 98 91 76 65 51 37 29
75 87 320 107 272 46 49 167 241 163 353 182 249 263 278 256 234 192 291 86 324 29 348 266 267 120 253 60 4 280 343 209 263 295 283 285 144 183 162 143 142 162 170 174 182 180 185 189 191 193 193 189 192 188 184 187 189 184 181 187 188 191 194 194 197 198 201 203 205 204 187 174 164 168 155 145 142 142 139 129 117 101 86 67 46 42 26 17 343 83 110 97 83 71 55 42 30
3 90 244 71 42 41 55 106 274 250 287 295 276 222 276 277 195 49 334 241 315 236 308 323 264 37 251 352 218 264 296 285 297 283 320 93 126 185 160 161 154 159 172 172 177 180 185 195 194 194 195 192 193 191 188 191 189 186 185 189 191 194 197 196 199 201 205 209 209 212 183 175 170 171 159 151 143 143 141 129 129 116 97 71 45 21 14 17 354 358 63 95 81 68 55 43 35
45 42 310 113 134 322 14 292 88 188 229 234 266 284 239 247 222 141 248 332 210 324 270 308 228 275 331 296 315 5 62 345 295 40 10 82 131 129 149 169 161 158 162 175 176 177 188 198 198 199 197 195 195 192 189 190 186 186 190 191 191 196 200 199 200 202 208 212 214 217 192 182 176 175 171 157 156 153 149 147 138 124 102 87 66 356 324 348 4 350 85 80 74 68 53 41 38
345 15 138 73 24 67 229 262 282 314 278 316 281 248 246 225 165 265 181 253 263 211 313 198 52 243 68 273 223 257 293 317 342 258 60 26 102 130 154 334 136 168 165 177 179 175 182 196 203 204 203 200 199 195 190 186 186 186 188 191 192 196 203 205 204 203 208 214 218 218 198 194 181 185 180 164 164 163 168 165 149 135 115 83 10 334 320 347 344 41 88 76 68 59 54 42 30
319 22 10 103 118 149 239 173 284 282 299 330 351 33 189 156 117 5 297 342 341 329 217 136 315 144 36 339 305 294 307 359 281 292 308 339 110 141 152 161 102 159 177 176 172 185 183 189 199 213 210 206 205 201 194 189 189 186 184 188 193 197 202 206 207 210 212 216 219 216 203 193 192 189 185 171 163 162 178 167 152 138 128 79 342 322 318 344 340 86 82 74 67 58 43 40 34
100 84 73 79 183 146 180 268 255 290 333 341 296 46 198 137 253 220 244 234 342 6 349 210 132 86 297 211 262 322 29 339 322 300 314 344 5 21 62 87 57 148 141 168 187 191 186 188 195 203 208 212 210 208 198 193 191 189 184 189 194 197 202 207 209 208 219 223 229 226 202 198 205 196 189 169 153 152 167 150 142 138 122 54 355 324 330 333 64 97 87 76 66 57 51 34 31
113 183 130 38 60 111 153 239 1 17 317 262 260 288 321 242 224 202 132 318 287 151 239 230 141 152 285 23 317 344 270 290 318 338 330 4 34 49 57 48 77 149 159 159 193 191 195 197 195 198 202 207 207 208 207 197 195 191 188 191 196 197 199 205 210 209 216 229 238 213 174 181 210 207 176 151 146 145 146 124 114 133 135 132 60 351 318 302 91 99 89 80 64 58 56 42 26
113 151 81 119 41 98 242 93 176 133 254 314 311 350 358 262 120 129 178 209 288 209 316 159 213 87 250 3 287 254 268 308 325 329 15 42 31 44 36 78 92 129 164 173 189 184 199 191 197 198 203 202 201 196 198 204 195 192 190 193 198 199 197 201 204 205 209 219 221 196 170 180 209 203 176 146 139 142 131 121 116 90 142 148 154 331 295 301 101 99 89 77 70 52 48 45 26
137 88 72 100 273 91 266 189 94 87 265 194 312 269 284 293 185 18 272 175 261 317 47 236 20 226 233 168 247 249 266 315 316 330 38 38 5 28 22 25 69 72 175 179 188 196 194 194 197 197 200 205 201 191 194 193 198 195 193 194 195 198 199 200 200 203 199 199 197 204 183 189 195 190 177 144 144 134 120 123 119 93 113 148 167 233 302 343 106 104 95 82 79 68 50 45 25
96 78 38 28 295 158 258 156 155 212 251 268 295 39 20 297 283 229 156 99 288 283 18 250 216 23 198 217 272 286 300 314 341 0 23 349 8 335 340 0 355 353 30 7 336 268 222 206 205 199 200 204 203 195 192 193 184 192 197 197 194 194 197 202 202 199 194 194 183 186 197 189 186 156 170 154 145 137 129 130 118 107 106 105 122 193 170 135 161 112 101 80 76 69 69 50 26
50 64 112 289 203 140 201 181 186 180 265 290 347 53 48 319 331 304 344 337 24 304 299 284 289 252 243 258 261 286 304 7 351 350 334 317 12 349 1 342 8 328 332 326 332 320 259 239 227 213 206 208 205 198 194 187 175 185 187 198 203 205 196 194 191 185 182 179 184 182 167 151 142 146 159 146 144 140 143 137 135 161 129 116 133 133 169 186 211 136 124 99 83 85 63 44 18
89 131 91 237 181 239 158 203 205 110 284 260 276 286 195 249 3 317 2 300 359 328 289 256 262 309 336 334 330 347 354 17 16 14 350 359 6 359 338 332 336 334 327 329 303 233 248 222 208 213 216 211 209 203 194 187 174 167 193 187 198 194 199 199 190 174 162 167 165 156 156 166 157 133 146 153 153 151 148 152 157 77 30 105 126 138 155 162 167 194 136 121 91 70 59 45 26
205 116 256 253 209 249 220 186 232 202 17 313 317 359 99 263 208 304 286 286 332 293 295 352 297 284 299 289 330 337 359 13 24 24 18 9 0 345 334 329 316 301 285 277 277 273 224 228 208 205 205 204 206 208 192 181 181 167 181 196 177 184 194 195 199 192 177 167 165 152 152 164 158 135 138 135 124 126 138 145 145 167 146 128 102 98 54 75 154 139 99 88 79 76 70 47 28
248 94 182 232 200 123 276 185 237 243 180 270 281 298 318 286 218 41 236 338 286 260 254 233 269 287 293 322 349 1 16 22 22 28 26 16 6 6 348 320 308 300 290 299 302 266 222 209 212 203 195 196 204 207 199 191 174 175 187 195 195 189 169 180 181 186 177 169 159 153 153 133 139 151 145 140 140 128 119 121 115 90 71 62 59 95 58 46 57 81 69 74 75 87 71 44 40
110 207 194 160 144 262 247 202 201 193 220 209 318 340 279 302 158 193 169 254 279 318 142 202 227 260 318 358 350 25 29 32 23 25 21 17 11 357 349 343 329 313 315 318 288 292 258 213 203 196 190 195 197 202 203 186 170 180 186 173 166 197 237 227 195 176 169 160 157 161 142 127 123 111 142 153 157 149 133 135 126 121 106 96 58 112 71 77 82 87 100 106 88 88 87 80 69
237 315 257 207 193 245 273 193 201 100 335 318 310 259 322 23 289 246 230 225 261 83 193 78 61 44 87 72 39 30 27 27 21 19 12 10 360 358 355 342 345 341 339 318 310 299 298 262 220 194 197 192 195 190 187 179 186 179 179 202 183 217 258 281 326 275 170 155 154 146 153 178 158 147 126 115 131 176 169 146 125 113 128 158 144 143 105 51 95 107 108 114 102 92 87 74 65
129 249 344 313 170 214 255 293 39 299 162 256 203 353 302 307 313 64 267 17 272 12 45 80 77 63 52 55 35 41 35 28 16 11 12 8 355 346 346 346 340 326 335 338 332 316 303 281 228 208 196 188 189 180 182 178 169 156 170 169 237 194 197 252 224 168 0 186 161 168 221 177 155 148 165 163 146 109 121 132 134 129 65 55 61 91 130 111 97 104 124 113 117 90 98 67 70
172 270 254 259 147 242 281 276 302 278 256 262 314 289 260 216 248 9 283 59 21 47 59 58 60 55 47 49 38 30 29 20 14 359 9 11 358 342 6 1 355 351 4 353 337 341 327 300 282 218 202 183 174 171 183 162 150 149 133 134 174 168 229 214 304 326 184 148 112 135 162 164 164 159 176 165 159 158 147 138 127 151 169 189 171 177 172 180 182 168 165 155 135 138 100 65 71
199 223 146 295 293 297 281 303 258 249 266 193 328 270 269 251 307 255 305 112 70 76 55 42 50 51 42 41 35 33 31 22 7 12 2 345 2 17 12 3 355 9 352 338 350 348 343 331 351 274 202 171 148 161 163 147 149 146 123 133 89 169 244 135 127 129 322 206 161 148 135 269 161 141 158 168 158 166 142 129 175 195 207 167 163 175 163 153 175 163 151 138 156 180 238 319 59
159 210 217 268 278 341 321 273 287 325 260 184 244 281 293 326 47 276 14 61 131 68 57 40 57 55 42 40 33 29 33 22 11 339 10 13 15 18 2 2 8 352 347 357 356 352 344 14 12 11 121 123 113 127 127 126 109 122 114 93 98 96 84 27 347 49 122 263 196 153 143 130 308 158 160 163 154 152 167 169 178 148 197 195 190 222 43 8 92 134 171 184 184 209 296 25 16
63 189 309 291 310 267 252 302 273 306 296 181 200 253 307 291 116 215 268 338 59 88 55 47 54 54 42 37 40 26 36 20 10 20 23 14 9 360 3 7 354 350 359 353 349 336 5 20 25 18 48 96 89 62 64 85 87 91 80 105 93 346 13 307 153 117 317 264 48 37 142 157 168 247 166 160 150 153 168 175 172 183 207 151 136 116 125 110 134 124 111 112 114 117 78 7 39
149 47 323 296 338 334 258 245 318 145 264 149 164 305 300 68 230 89 38 93 80 81 68 54 52 49 43 36 37 35 28 18 22 28 18 8 359 360 6 3 359 354 351 343 337 354 14 9 29 30 39 52 84 94 86 70 69 71 113 141 180 203 216 205 244 241 210 199 28 124 134 136 150 160 173 156 146 125 123 131 156 207 191 132 128 129 126 122 113 116 88 86 89 91 20 293 349
129 35 77 325 352 321 299 42 25 140 251 130 181 290 276 261 253 330 9 127 90 63 55 46 47 41 38 36 37 36 29 27 26 23 12 7 2 3 7 359 3 5 347 345 351 14 1 7 20 39 42 52 51 50 59 66 59 62 36 32 17 8 6 5 8 14 28 33 39 39 31 21 15 22 31 51 91 143 136 146 176 207 128 134 124 125 131 141 143 139 144 118 184 223 257 275 331
273 261 63 267 358 272 280 84 281 349 199 132 108 219 283 278 75 345 7 97 91 90 64 53 44 39 37 32 34 38 34 31 26 18 13 9 5 5 7 3 8 7 1 2 9 356 11 18 16 44 41 55 53 55 59 59 55 53 43 38 35 35 41 40 27 35 41 32 44 45 40 40 46 48 41 62 39 20 20 14 353 26 87 108 120 125 137 135 133 166 148 186 258 286 282 296 290
8 15 299 326 174 279 300 281 185 202 342 72 115 355 247 267 264 15 344 56 94 87 73 53 44 44 39 31 34 33 28 22 23 21 14 5 7 5 8 8 7 12 12 0 359 5 23 20 22 45 43 54 59 63 63 64 66 65 62 53 45 38 34 37 31 29 24 37 34 37 33 46 50 52 58 52 53 46 38 26 19 40 52 66 68 75 107 141 144 158 188 178 224 266 298 290 306
353 187 272 269 202 270 334 332 247 231 106 359 149 231 331 298 172 47 9 52 84 99 74 55 53 46 39 37 34 29 24 18 21 16 9 5 2 5 7 10 14 12 11 10 9 12 24 18 23 33 36 44 61 68 70 69 68 64 62 57 57 53 45 39 38 35 40 42 35 41 45 55 62 70 65 59 65 52 49 50 44 51 39 40 43 53 46 42 125 195 260 338 311 297 289 282 303
278 43 228 213 222 258 251 300 26 15 149 182 10 204 242 259 290 87 22 43 91 84 82 66 58 55 45 44 42 34 33 27 21 5 359 360 356 1 8 16 16 15 19 17 16 22 23 20 26 29 28 30 45 62 71 76 74 72 66 63 58 58 51 45 40 39 37 32 32 31 31 33 31 32 36 41 52 48 47 47 42 42 47 51 58 43 31 26 20 9 342 28 4 336 307 304 296
226 220 249 285 259 222 255 334 267 33 23 62 311 244 265 277 283 26 13 24 81 80 82 78 67 57 49 49 43 39 39 36 15 1 355 354 360 360 9 15 20 20 22 20 25 26 30 27 30 31 27 22 29 41 57 68 72 74 71 63 56 53 47 44 37 42 34 37 34 31 35 35 32 32 32 34 43 40 42 40 44 40 74 96 77 64 51 45 41 34 5 344 38 351 303 315 299
228 221 231 189 248 231 203 238 283 59 322 328 268 254 266 270 279 358 13 25 79 91 82 73 66 61 59 54 45 40 39 37 7 3 359 1 6 6 12 13 23 25 25 24 30 31 29 29 31 36 28 19 34 45 43 57 61 53 60 55 51 42 46 44 41 40 34 37 27 32 34 35 32 34 34 34 40 39 41 38 43 34 36 47 51 44 36 45 42 16 0 308 318 318 230 317 359
153 164 217 241 240 281 273 263 259 67 332 253 250 259 254 265 295 340 349 26 63 73 79 82 75 76 68 63 57 53 47 33 350 7 9 11 14 14 15 18 21 29 29 26 34 30 29 25 37 33 16 27 41 44 45 48 57 65 60 60 65 48 48 48 47 36 41 37 33 35 34 33 31 34 31 35 37 40 41 36 36 30 28 41 47 47 34 40 61 84 78 104 281 349 328 73 121
238 254 256 274 180 260 247 271 325 318 176 294 265 294 269 253 334 344 349 54 53 88 108 107 101 88 77 77 68 49 49 41 20 24 14 20 20 16 17 24 21 32 20 26 32 26 28 31 40 32 25 36 37 40 59 62 56 78 93 84 81 62 51 47 43 36 36 37 36 32 32 30 34 35 31 34 39 36 36 34 33 28 26 28 38 38 31 37 42 40 26 8 38 329 281 246 240
248 227 258 299 258 268 281 267 343 288 157 257 309 287 274 291 340 9 23 65 53 30 103 130 128 116 103 81 76 58 50 38 30 27 23 25 22 18 21 24 28 31 31 32 25 34 32 35 35 37 33 36 34 33 51 62 66 66 82 87 85 84 71 77 71 55 45 46 41 35 31 30 30 34 29 31 36 31 32 35 27 22 29 20 27 25 23 23 18 23 31 25 334 351 284 315 92
219 226 237 243 239 341 302 287 15 32 156 270 61 272 279 302 83 52 15 54 78 58 69 62 57 99 91 69 55 64 49 37 37 23 23 25 26 19 21 27 22 30 35 31 28 33 36 36 37 40 41 39 37 33 48 55 68 78 75 85 80 78 82 77 71 55 46 44 40 36 36 31 33 36 31 32 37 37 34 34 28 29 25 24 28 32 25 21 13 13 12 20 43 342 353 331 19
179 190 221 244 238 224 195 255 331 285 339 62 263 290 293 246 226 128 44 51 78 46 64 66 52 55 94 97 62 49 56 36 36 29 28 27 27 22 21 21 22 39 36 33 26 31 39 39 41 49 49 47 45 41 43 51 63 60 71 81 85 83 56 49 49 42 42 47 48 38 33 34 38 41 36 34 35 35 34 33 35 31 33 25 26 31 28 19 20 21 14 12 17 359 338 338 333
309 221 213 224 214 238 242 343 347 7 336 348 34 327 307 308 286 186 147 47 59 8 82 65 64 48 57 63 58 45 51 49 55 44 36 32 32 23 27 29 37 38 38 25 23 31 41 44 47 51 57 52 49 48 52 62 60 61 54 51 50 55 55 44 44 40 37 40 45 44 44 40 40 44 39 38 36 35 35 31 32 32 30 27 27 32 29 23 18 18 10 15 12 16 348 344 328
189 270 202 217 224 230 269 267 83 295 220 324 37 205 273 321 310 125 123 96 80 26 57 109 48 53 47 49 45 38 37 41 39 47 40 42 24 39 36 36 29 42 28 15 33 41 45 51 52 55 56 54 48 52 55 69 67 65 69 73 75 70 78 59 57 51 59 51 53 47 44 40 39 41 39 38 36 35 37 35 34 36 35 30 21 29 28 21 10 18 8 25 20 11 25 11 348
232 255 152 174 184 201 223 167 182 232 249 303 28 129 245 287 280 40 127 125 186 204 205 225 94 52 55 52 34 36 34 37 53 47 43 37 36 40 45 28 32 28 8 29 50 46 51 52 60 61 60 58 49 56 62 63 78 73 73 71 68 69 72 82 64 63 60 58 56 45 42 40 37 39 37 35 33 33 33 35 33 36 38 33 31 33 25 7 10 11 18 19 28 34 28 30 341
216 233 136 140 180 186 135 149 179 218 20 284 314 243 312 260 264 342 143 159 227 223 201 209 197 228 159 74 58 60 54 49 57 64 49 38 37 35 33 46 25 27 21 42 51 48 49 54 65 67 63 60 52 56 66 63 74 79 80 79 76 64 73 75 78 66 63 53 60 45 45 39 37 37 38 35 31 30 30 29 28 32 34 31 32 31 27 24 22 14 9 10 9 8 24 10 28
252 129 91 81 74 69 118 107 126 322 76 261 229 191 224 272 287 192 303 279 243 199 191 195 216 210 203 158 127 98 72 59 49 54 46 39 24 25 23 53 48 36 24 35 48 56 53 59 66 68 60 59 57 62 70 70 74 83 83 80 85 80 76 76 69 62 55 48 56 47 41 39 33 33 31 34 33 30 30 27 28 28 26 23 26 24 22 23 20 17 15 9 8 15 5 11 5
130 98 64 18 40 27 19 67 86 57 258 235 210 204 176 287 229 210 171 214 176 119 142 199 218 228 222 208 178 158 128 88 74 56 43 36 5 34 39 63 57 50 44 47 50 52 57 66 73 70 59 58 57 62 68 70 68 70 78 80 82 82 71 69 66 56 53 49 51 42 39 34 34 34 27 28 30 25 27 29 28 26 26 24 23 21 18 14 9 9 7 11 20 19 7 359 357
125 107 130 54 326 8 35 343 38 128 265 260 321 242 170 208 293 271 233 192 174 159 178 184 193 197 194 185 186 178 156 134 94 89 73 66 68 49 51 71 64 57 57 57 55 54 61 68 78 79 60 56 58 64 72 75 79 78 81 85 86 87 88 79 74 71 61 64 59 52 40 40 31 27 25 22 19 13 17 18 19 21 23 19 21 16 16 13 7 7 9 11 5 4 7 7 359
82 87 66 96 265 26 302 20 281 207 224 196 348 340 348 246 230 222 233 206 212 205 180 181 183 183 182 181 179 173 158 145 134 140 134 111 115 111 99 86 76 67 72 69 67 70 70 71 75 87 71 60 63 64 73 73 76 76 85 86 85 83 77 76 74 71 57 60 52 48 39 40 26 29 20 21 10 9 10 13 13 12 10 9 7 13 11 10 11 9 7 5 2 3 358 358 357
115 150 142 88 57 46 269 273 242 307 294 279 339 246 249 266 285 232 224 248 249 272 267 191 176 176 175 172 164 159 168 168 173 167 166 160 150 137 122 112 101 94 86 80 79 78 76 79 78 86 84 65 68 69 72 78 73 77 77 83 83 82 78 75 73 76 69 69 66 63 57 49 41 35 17 18 354 354 6 6 6 9 9 4 8 8 10 7 8 8 0 3 356 340 348 354 348
206 127 146 186 142 156 246 201 230 240 227 277 264 78 231 119 229 251 238 277 296 264 230 156 132 131 137 134 138 153 168 189 178 179 181 176 187 174 145 127 120 121 107 98 93 89 88 88 88 94 91 71 74 76 78 79 80 79 80 82 86 81 83 78 76 79 77 71 60 63 55 47 49 22 16 345 355 5 355 359 1 4 0 0 0 3 2 1 1 359 2 352 343 341 345 343 342
172 164 81 89 229 144 232 200 165 257 329 336 204 206 192 191 106 270 311 300 15 43 130 130 135 131 134 143 167 182 188 186 186 182 193 204 194 182 155 137 143 137 131 121 111 113 105 105 101 101 108 108 96 95 94 102 99 92 87 86 82 79 79 82 81 77 78 84 81 73 58 56 44 16 350 5 356 7 359 360 357 356 351 356 360 0 356 357 354 356 349 351 345 341 342 340 331
221 103 204 210 157 142 296 41 94 97 59 252 140 298 281 313 67 4 339 57 13 76 129 142 149 152 156 177 188 195 193 186 187 189 189 191 188 187 172 162 155 150 144 148 153 153 137 130 120 116 122 133 133 131 134 132 129 109 95 88 80 79 79 70 70 61 61 64 61 48 44 31 28 21 8 13 5 8 7 4 1 358 0 358 359 358 356 349 350 350 344 342 339 334 339 334 331
98 178 241 144 180 109 137 233 342 63 224 271 80 235 279 40 279 38 19 343 212 179 162 161 151 160 178 195 197 196 193 191 188 189 191 190 189 179 178 178 171 165 160 160 168 185 168 152 143 130 133 124 155 151 136 116 91 69 58 51 47 45 44 40 37 37 34 41 30 28 21 20 14 6 6 1 3 1 3 4 2 357 356 1 2 355 354 346 344 341 327 320 310 317 321 319 322
147 187 234 121 244 250 344 82 283 262 260 275 285 263 265 203 250 99 250 207 208 188 187 163 179 189 195 198 201 200 191 178 181 193 193 200 193 186 178 178 185 179 176 177 182 182 178 176 165 140 136 144 134 102 65 51 47 50 48 47 45 40 39 42 38 47 51 54 42 33 33 21 10 5 5 1 1 357 356 354 354 349 352 354 356 352 346 343 339 334 326 321 316 318 317 314 312
56 87 35 92 105 192 107 195 195 138 272 291 285 342 270 188 221 186 208 205 186 171 183 201 195 193 190 194 195 191 184 185 186 192 196 194 195 190 180 175 177 186 190 200 191 183 170 172 146 126 80 56 47 40 42 51 42 55 51 50 44 59 63 78 79 65 54 46 34 26 19 16 5 354 3 352 353 344 341 343 345 348 348 351 351 348 346 341 338 332 325 326 320 322 317 314 311
111 138 293 1 67 234 102 330 159 205 205 199 279 283 271 260 199 181 215 200 185 179 193 197 199 200 202 196 188 180 180 187 192 191 188 190 193 189 187 189 189 192 190 188 174 158 157 72 49 36 54 39 44 35 56 52 60 60 68 74 76 68 48 43 42 37 37 28 21 18 11 354 342 353 357 347 351 344 345 345 347 348 349 347 346 343 344 340 340 335 332 326 322 323 317 311 307
172 175 204 186 135 232 246 255 74 107 174 243 226 259 274 263 171 208 201 221 182 208 194 193 200 199 196 194 186 179 186 196 193 187 180 185 187 181 191 192 197 186 196 171 167 120 68 57 49 61 69 50 59 41 60 92 95 100 97 78 56 49 44 42 45 42 33 32 15 12 357 1 9 349 4 350 356 354 355 353 356 349 350 345 340 340 336 339 333 329 324 323 324 318 312 307 308